Regional Weather Roundup
Issued by NWS

Home | Current Version | Previous Version | Text Only | Print | Product List | Glossary Off
Versions: 1 2 3 4 5 6 7 8 9 10 11 12 13 14 15 16 17 18 19 20 21 22 23 24 25 26 27 28 29 30 31 32 33 34 35 36 37 38 39 40 41 42 43 44 45 46 47 48 49 50

000
ASUS43 KFSD 191102
RWRSD

WEATHER ROUNDUP FOR SOUTH DAKOTA
NATIONAL WEATHER SERVICE SIOUX FALLS SD
600 AM CDT SUN APR 19 2015

NOTE: "FAIR" INDICATES FEW OR NO CLOUDS BELOW 12,000 FEET WITH NO
SIGNIFICANT WEATHER AND/OR OBSTRUCTIONS TO VISIBILITY.


SDZ001>005-009-010-012>017-191200-
NORTHWEST AND NORTH CENTRAL SOUTH DAKOTA

CITY           SKY/WX    TMP DP  RH WIND       PRES   REMARKS
BUFFALO          N/A     31  23  72 NW15      29.99R WCI  20
FAITH            N/A     36  31  82 NW15      30.00R
MOBRIDGE       MOCLDY    43  35  73 NW18G30   29.89R
$$

SDZ012>016-024>037-041>051-057-063-072>074-191200-
SOUTHWEST AND SOUTH CENTRAL SOUTH DAKOTA

CITY           SKY/WX    TMP DP  RH WIND       PRES   REMARKS
RAPID CTY ARPT CLEAR     37  27  67 NW15      30.06R
PIERRE         CLOUDY    44  39  82 NW16      29.92R
CUSTER         CLEAR     31  21  66 N5        30.04S WCI  26
ELLSWORTH AFB  CLEAR     37  27  69 NW17      30.05R
PHILIP         MOCLDY    43  35  73 NW13      30.01R
PINE RIDGE     MOCLDY    41  29  62 N15G24    30.05R
WINNER         CLOUDY    47  43  86 NW22G30   29.89R
$$

SDZ004>011-016>023-039-040-191200-
NORTHEAST SOUTH DAKOTA

CITY           SKY/WX    TMP DP  RH WIND       PRES   REMARKS
ABERDEEN       LGT RAIN  49  45  86 NW24G31   29.79R
WATERTOWN      CLOUDY    49  46  90 NW18      29.71R
BROOKINGS      CLOUDY    54  50  87 W12       29.71S
SISSETON         N/A     49  48  97 N22G28    29.69F
$$

SDZ017-020-022-023-036>040-048>070-191200-
SOUTHEAST SOUTH DAKOTA

CITY           SKY/WX    TMP DP  RH WIND       PRES   REMARKS
SIOUX FALLS    CLOUDY    54  51  90 W12       29.72S
HURON          CLOUDY    48  47  96 NW18      29.78R
MITCHELL       CLOUDY    50  47  89 NW23      29.79R
YANKTON        CLOUDY    50  46  87 NW21      29.76S
$$

ABBREVIATIONS USED IN REMARKS
   TC - TEMPERATURE IN CELSIUS
  WCI - WIND CHILL INDEX
   HX - HEAT INDEX
  VSB - VISIBILITY



USA.gov is the U.S. government's official web portal to all federal, state and local government web resources and services.